Tracking 31027 objects as of 19-Jul-2025
HD Live streaming from Space Station
objects crossing your sky now

THORAD DELTA 1 DEB

Track THORAD DELTA 1 DEB now!
10-day predictions


NORAD ID: 8435
Int'l Code: 1974-089CL
Perigee: 1,463.8 km
Apogee: 1,728.4 km
Inclination: 101.6 °
Period: 118.0 minutes
Semi major axis: 7967 km
RCS: 0.0834 m2 (small)
Launch date: November 15, 1974
Source: United States (US)
Launch site: AIR FORCE WESTERN TEST RANGE (AFWTR)

Note: This is SATELLITE DEBRIS
Your satellite tracking list
NOAA 16 DEB
Track 1 satellite(s)




NASA's NSSDC Master Catalog

Two Line Element Set (TLE):
1 08435U 74089CL  25199.61671646 -.00000034  00000-0  51836-4 0  9996
2 08435 101.6139  86.5859 0166027  63.0039 326.9165 12.20816828258530
Source of the keplerian elements: AFSPC